IRIDIUM 33 DEB, 33870

Orbit data source: Space-Track

IRIDIUM 33 DEB, 33870 is space debris in LEO originally from a launch on Sun, 14 Sep 1997 UTC launched from the Tyuratam Missile And Space Complex (TTMTR). The debris from Iridium 33, an American commercial communications satellite, has been tracked extensively since its accidental collision with the defunct Russian satellite Cosmos 2251 in 2009. This event, occurring at high speed in low Earth orbit (LEO), generated thousands of pieces of space debris, significantly increasing the risk of further collisions. The Iridium 33 debris cloud has impacted space traffic management and orbital debris mitigation strategies, making it a subject of ongoing study in space situational awareness.

Loading next visibility...
Identifier
33870, 1997-051AP
Orbit
LEO
Country
Flag of USUS
Related business
Manufacturer
Unknown
Mission
Spacecraft
Bus & Motor
Unknown
Mass
Unknown
Launch date (UTC)
1997-09-14 (29 years ago)
Launch vehicle
Unknown
Launch site
Tyuratam Missile And Space Complex (TTMTR)
Object type
Payload
Rocket body
Debris
Shape & HBR
Unknown shape, 0.078 m
Radar Cross Section
Medium (>0.1 m² and <1 m²)

Expand to show TLE details & history
Last TLE update: 1 day ago

TLE from 1 day ago
0 IRIDIUM 33 DEB
1 33870U 97051AP  26266.84000778  .00001165  00000-0  31377-3 0  9996
2 33870  86.3711 295.9375 0018597 319.5557 215.5151 14.47084160922585
Epoch: 2026-09-23T20:09Z
TLE epoch observation values (Epoch: 2026-09-23T20:09:36.672Z)
Latitude
4.9537°
Longitude
170.53606°
Altitude
748.528 km
Speed
7.475 km/s
True Right ascension
07h 42m 29s
True Declination
4° 55' 27"
Sunlit
Object was in daylight at epoch
Visualization orbit readout
Latitude
Unknown
Longitude
Unknown
Altitude
Unknown
Speed
Unknown
Apparent Right ascension
Unknown
Apparent Declination
Unknown
Sunlit
N/A
Visualization observer readout
Local Sidereal Time
15:03:55
Azimuth
Unknown
Elevation
Unknown
Doppler factor
Unknown
Orbital elements
Apogee altitude
745.358 km
Perigee altitude
718.912 km
Semi-major axis
7,110.272 km
Eccentricity
0.00186
Inclination
86.3711°
RAAN
295.9375°
Arg. of periapsis
319.5557°
True anomaly
215.39154°
Mean anomaly
215.5151°
Eccentric anomaly
215.4533°
Mean motion
3.62004 °/min
Orbital period
99.45 mins
BSTAR
0.00031377

Documentation

Showing up to 5 results
|